Time,TemperatureF,DewpointF,PressureIn,WindDirection,WindDirectionDegrees,WindSpeedMPH,WindSpeedGustMPH,Humidity,HourlyPrecipIn,Conditions,Clouds,dailyrainin,SolarRadiationWatts/m^2,SoftwareType,DateUTC
2013-02-24 00:00:00,44.8,36.0,30.21,West,263,0.0,0.0,71,0.00,,,0.00,0,Wunderground v.1.15,2013-02-24 08:00:00,
2013-02-24 00:10:00,44.7,35.5,30.21,West,263,0.0,0.0,70,0.00,,,0.00,0,Wunderground v.1.15,2013-02-24 08:10:00,
2013-02-24 00:20:00,45.6,35.3,30.21,WSW,255,0.0,0.0,67,0.00,,,0.00,0,Wunderground v.1.15,2013-02-24 08:20:00,
2013-02-24 00:30:00,46.6,35.5,30.21,West,268,1.0,2.0,65,0.00,,,0.00,0,Wunderground v.1.15,2013-02-24 08:30:00,
2013-02-24 00:35:00,46.8,35.6,30.21,WSW,248,1.0,2.0,65,0.00,,,0.00,0,Wunderground v.1.15,2013-02-24 08:35:00,
2013-02-24 00:40:00,46.9,35.7,30.22,West,271,0.0,0.0,65,0.00,,,0.00,0,Wunderground v.1.15,2013-02-24 08:40:00,
2013-02-24 00:50:00,46.7,35.2,30.21,SW,217,0.0,0.0,64,0.00,,,0.00,0,Wunderground v.1.15,2013-02-24 08:50:00,
2013-02-24 00:55:00,46.6,35.1,30.22,SSE,162,0.0,0.0,64,0.00,,,0.00,0,Wunderground v.1.15,2013-02-24 08:55:00,
2013-02-24 01:00:00,46.5,35.4,30.22,SSE,163,0.0,0.0,65,0.00,,,0.00,0,Wunderground v.1.15,2013-02-24 09:00:00,
2013-02-24 01:10:00,46.5,34.6,30.22,WNW,289,0.0,0.0,63,0.00,,,0.00,0,Wunderground v.1.15,2013-02-24 09:10:00,
2013-02-24 01:15:00,46.7,34.8,30.22,West,267,0.0,0.0,63,0.00,,,0.00,0,Wunderground v.1.15,2013-02-24 09:15:00,
2013-02-24 01:25:00,46.5,34.6,30.22,NW,308,0.0,0.0,63,0.00,,,0.00,0,Wunderground v.1.15,2013-02-24 09:25:00,
2013-02-24 01:30:00,46.3,34.4,30.22,NW,308,0.0,0.0,63,0.00,,,0.00,0,Wunderground v.1.15,2013-02-24 09:30:00,
2013-02-24 01:40:00,46.2,34.7,30.22,West,273,0.0,0.0,64,0.00,,,0.00,0,Wunderground v.1.15,2013-02-24 09:40:00,
2013-02-24 01:50:00,45.9,34.0,30.22,West,269,0.0,0.0,63,0.00,,,0.00,0,Wunderground v.1.15,2013-02-24 09:50:00,
2013-02-24 02:00:00,45.7,34.2,30.22,West,269,0.0,0.0,64,0.00,,,0.00,0,Wunderground v.1.15,2013-02-24 10:00:00,
2013-02-24 02:10:00,45.4,34.3,30.22,West,266,0.0,0.0,65,0.00,,,0.00,0,Wunderground v.1.15,2013-02-24 10:10:00,
2013-02-24 02:20:00,45.3,34.2,30.22,WSW,240,0.0,0.0,65,0.00,,,0.00,0,Wunderground v.1.15,2013-02-24 10:20:00,
2013-02-24 02:30:00,45.4,34.7,30.22,SW,235,0.0,0.0,66,0.00,,,0.00,0,Wunderground v.1.15,2013-02-24 10:30:00,
2013-02-24 02:35:00,45.4,35.1,30.22,West,259,0.0,1.0,67,0.00,,,0.00,0,Wunderground v.1.15,2013-02-24 10:35:00,
2013-02-24 02:45:00,45.4,35.1,30.21,WNW,284,0.0,0.0,67,0.00,,,0.00,0,Wunderground v.1.15,2013-02-24 10:45:00,
2013-02-24 02:55:00,45.3,35.0,30.22,West,279,0.0,0.0,67,0.00,,,0.00,0,Wunderground v.1.15,2013-02-24 10:55:00,
2013-02-24 03:00:00,45.2,34.9,30.22,West,279,0.0,0.0,67,0.00,,,0.00,0,Wunderground v.1.15,2013-02-24 11:00:00,
2013-02-24 03:10:00,45.0,34.3,30.21,West,279,0.0,0.0,66,0.00,,,0.00,0,Wunderground v.1.15,2013-02-24 11:10:00,
2013-02-24 03:15:00,45.0,34.3,30.21,WNW,283,0.0,0.0,66,0.00,,,0.00,0,Wunderground v.1.15,2013-02-24 11:15:00,
2013-02-24 03:25:00,45.4,34.3,30.21,WNW,285,0.0,0.0,65,0.00,,,0.00,0,Wunderground v.1.15,2013-02-24 11:25:00,
2013-02-24 03:35:00,45.8,33.9,30.21,North,355,0.0,0.0,63,0.00,,,0.00,0,Wunderground v.1.15,2013-02-24 11:35:00,
2013-02-24 03:45:00,45.9,33.6,30.22,North,9,0.0,5.0,62,0.00,,,0.00,0,Wunderground v.1.15,2013-02-24 11:45:00,
2013-02-24 03:50:00,46.3,33.6,30.22,North,355,1.0,1.0,61,0.00,,,0.00,0,Wunderground v.1.15,2013-02-24 11:50:00,
2013-02-24 04:00:00,46.5,33.8,30.22,NNW,332,0.0,0.0,61,0.00,,,0.00,0,Wunderground v.1.15,2013-02-24 12:00:00,
2013-02-24 04:10:00,46.5,32.5,30.22,North,5,0.0,0.0,58,0.00,,,0.00,0,Wunderground v.1.15,2013-02-24 12:10:00,
2013-02-24 04:20:00,46.9,31.6,30.22,NNE,18,1.0,1.0,55,0.00,,,0.00,0,Wunderground v.1.15,2013-02-24 12:20:00,
2013-02-24 04:30:00,47.0,32.1,30.22,North,360,0.0,0.0,56,0.00,,,0.00,0,Wunderground v.1.15,2013-02-24 12:30:00,
2013-02-24 04:35:00,46.7,31.8,30.22,North,360,0.0,0.0,56,0.00,,,0.00,0,Wunderground v.1.15,2013-02-24 12:35:00,
2013-02-24 04:40:00,46.5,32.1,30.22,North,360,0.0,0.0,57,0.00,,,0.00,0,Wunderground v.1.15,2013-02-24 12:40:00,
2013-02-24 04:50:00,45.5,32.0,30.22,North,5,0.0,0.0,59,0.00,,,0.00,0,Wunderground v.1.15,2013-02-24 12:50:00,
2013-02-24 05:00:00,45.2,31.7,30.23,North,5,0.0,0.0,59,0.00,,,0.00,0,Wunderground v.1.15,2013-02-24 13:00:00,
2013-02-24 05:10:00,45.1,32.0,30.23,North,5,0.0,0.0,60,0.00,,,0.00,0,Wunderground v.1.15,2013-02-24 13:10:00,
2013-02-24 05:20:00,44.8,32.2,30.22,North,5,0.0,0.0,61,0.00,,,0.00,0,Wunderground v.1.15,2013-02-24 13:20:00,
2013-02-24 05:30:00,44.5,31.9,30.22,North,5,0.0,0.0,61,0.00,,,0.00,0,Wunderground v.1.15,2013-02-24 13:30:00,
2013-02-24 05:40:00,44.2,32.0,30.23,North,5,0.0,0.0,62,0.00,,,0.00,0,Wunderground v.1.15,2013-02-24 13:40:00,
2013-02-24 05:50:00,44.0,31.8,30.23,North,5,0.0,0.0,62,0.00,,,0.00,0,Wunderground v.1.15,2013-02-24 13:50:00,
2013-02-24 05:55:00,43.9,31.7,30.23,North,5,0.0,0.0,62,0.00,,,0.00,0,Wunderground v.1.15,2013-02-24 13:55:00,
2013-02-24 06:00:00,43.8,31.6,30.23,North,5,0.0,0.0,62,0.00,,,0.00,0,Wunderground v.1.15,2013-02-24 14:00:00,
2013-02-24 06:10:00,43.6,31.4,30.23,North,5,0.0,0.0,62,0.00,,,0.00,0,Wunderground v.1.15,2013-02-24 14:10:00,
2013-02-24 06:20:00,43.4,31.2,30.24,North,5,0.0,0.0,62,0.00,,,0.00,0,Wunderground v.1.15,2013-02-24 14:20:00,
2013-02-24 06:30:00,43.3,31.1,30.24,North,5,0.0,0.0,62,0.00,,,0.00,0,Wunderground v.1.15,2013-02-24 14:30:00,
2013-02-24 06:40:00,43.3,31.1,30.24,North,5,0.0,0.0,62,0.00,,,0.00,0,Wunderground v.1.15,2013-02-24 14:40:00,
2013-02-24 06:50:00,43.2,31.4,30.25,North,5,0.0,0.0,63,0.00,,,0.00,0,Wunderground v.1.15,2013-02-24 14:50:00,
2013-02-24 06:55:00,42.9,31.6,30.25,North,5,0.0,0.0,64,0.00,,,0.00,7,Wunderground v.1.15,2013-02-24 14:55:00,
2013-02-24 07:00:00,42.6,31.3,30.25,North,5,0.0,0.0,64,0.00,,,0.00,11,Wunderground v.1.15,2013-02-24 15:00:00,
2013-02-24 07:10:00,42.5,31.6,30.25,North,5,0.0,0.0,65,0.00,,,0.00,16,Wunderground v.1.15,2013-02-24 15:10:00,
2013-02-24 07:20:00,42.7,31.4,30.25,North,5,0.0,0.0,64,0.00,,,0.00,21,Wunderground v.1.15,2013-02-24 15:20:00,
2013-02-24 07:30:00,43.0,31.6,30.25,North,5,0.0,0.0,64,0.00,,,0.00,25,Wunderground v.1.15,2013-02-24 15:30:00,
2013-02-24 07:40:00,43.4,31.6,30.25,North,5,0.0,0.0,63,0.00,,,0.00,26,Wunderground v.1.15,2013-02-24 15:40:00,
2013-02-24 07:50:00,44.1,32.3,30.26,North,5,0.0,0.0,63,0.00,,,0.00,51,Wunderground v.1.15,2013-02-24 15:50:00,
2013-02-24 08:00:00,44.9,32.7,30.26,North,5,0.0,0.0,62,0.00,,,0.00,33,Wunderground v.1.15,2013-02-24 16:00:00,
2013-02-24 08:10:00,45.8,32.7,30.26,North,5,0.0,0.0,60,0.00,,,0.00,46,Wunderground v.1.15,2013-02-24 16:10:00,
2013-02-24 08:20:00,46.8,33.2,30.26,North,5,0.0,0.0,59,0.00,,,0.00,47,Wunderground v.1.15,2013-02-24 16:20:00,
2013-02-24 08:30:00,47.4,32.9,30.26,North,5,0.0,0.0,57,0.00,,,0.00,97,Wunderground v.1.15,2013-02-24 16:30:00,
2013-02-24 08:35:00,47.8,32.9,30.26,North,5,0.0,0.0,56,0.00,,,0.00,139,Wunderground v.1.15,2013-02-24 16:35:00,
2013-02-24 08:40:00,48.2,32.8,30.26,North,5,0.0,0.0,55,0.00,,,0.00,104,Wunderground v.1.15,2013-02-24 16:40:00,
2013-02-24 08:45:00,48.6,32.7,30.26,North,5,0.0,0.0,54,0.00,,,0.00,47,Wunderground v.1.15,2013-02-24 16:45:00,
2013-02-24 08:55:00,49.4,32.5,30.27,North,5,0.0,0.0,52,0.00,,,0.00,76,Wunderground v.1.15,2013-02-24 16:55:00,
2013-02-24 09:00:00,49.8,33.3,30.27,North,5,0.0,0.0,53,0.00,,,0.00,60,Wunderground v.1.15,2013-02-24 17:00:00,
2013-02-24 09:10:00,50.6,31.1,30.27,North,5,0.0,0.0,47,0.00,,,0.00,54,Wunderground v.1.15,2013-02-24 17:10:00,
2013-02-24 09:15:00,50.9,31.4,30.27,North,5,0.0,0.0,47,0.00,,,0.00,44,Wunderground v.1.15,2013-02-24 17:15:00,
2013-02-24 09:25:00,51.3,30.1,30.27,North,5,0.0,0.0,44,0.00,,,0.00,107,Wunderground v.1.15,2013-02-24 17:25:00,
2013-02-24 09:35:00,51.8,30.0,30.26,North,360,0.0,0.0,43,0.00,,,0.00,47,Wunderground v.1.15,2013-02-24 17:35:00,
2013-02-24 09:45:00,52.2,30.4,30.26,NNW,340,0.0,3.0,43,0.00,,,0.00,40,Wunderground v.1.15,2013-02-24 17:45:00,
2013-02-24 09:55:00,52.6,29.5,30.26,NNW,342,0.0,3.0,41,0.00,,,0.00,51,Wunderground v.1.15,2013-02-24 17:55:00,
2013-02-24 10:00:00,52.6,28.3,30.27,NNW,334,0.0,0.0,39,0.00,,,0.00,40,Wunderground v.1.15,2013-02-24 18:00:00,
2013-02-24 10:10:00,52.9,28.6,30.26,NNW,340,0.0,0.0,39,0.00,,,0.00,40,Wunderground v.1.15,2013-02-24 18:10:00,
2013-02-24 10:15:00,53.1,26.8,30.26,NNW,344,1.0,1.0,36,0.00,,,0.00,40,Wunderground v.1.15,2013-02-24 18:15:00,
2013-02-24 10:25:00,53.5,27.8,30.26,North,355,0.0,2.0,37,0.00,,,0.00,40,Wunderground v.1.15,2013-02-24 18:25:00,
2013-02-24 10:30:00,53.7,26.7,30.25,East,93,0.0,1.0,35,0.00,,,0.00,40,Wunderground v.1.15,2013-02-24 18:30:00,
2013-02-24 10:40:00,54.1,26.3,30.25,North,360,1.0,1.0,34,0.00,,,0.00,42,Wunderground v.1.15,2013-02-24 18:40:00,
2013-02-24 10:50:00,54.2,24.9,30.25,North,9,0.0,0.0,32,0.00,,,0.00,84,Wunderground v.1.15,2013-02-24 18:50:00,
2013-02-24 10:55:00,54.3,27.2,30.25,North,10,0.0,0.0,35,0.00,,,0.00,524,Wunderground v.1.15,2013-02-24 18:55:00,
2013-02-24 11:00:00,54.6,28.2,30.25,North,360,0.0,0.0,36,0.00,,,0.00,69,Wunderground v.1.15,2013-02-24 19:00:00,
2013-02-24 11:10:00,55.0,27.8,30.25,NNW,336,1.0,3.0,35,0.00,,,0.00,142,Wunderground v.1.15,2013-02-24 19:10:00,
2013-02-24 11:20:00,55.3,27.4,30.24,North,11,1.0,2.0,34,0.00,,,0.00,281,Wunderground v.1.15,2013-02-24 19:20:00,
2013-02-24 11:30:00,56.2,26.7,30.24,SE,132,0.0,0.0,32,0.00,,,0.00,292,Wunderground v.1.15,2013-02-24 19:30:00,
2013-02-24 11:35:00,56.4,26.9,30.24,North,5,1.0,2.0,32,0.00,,,0.00,417,Wunderground v.1.15,2013-02-24 19:35:00,
2013-02-24 11:45:00,56.5,27.0,30.24,NW,320,1.0,1.0,32,0.00,,,0.00,97,Wunderground v.1.15,2013-02-24 19:45:00,
2013-02-24 11:50:00,56.5,28.4,30.24,North,11,1.0,2.0,34,0.00,,,0.00,123,Wunderground v.1.15,2013-02-24 19:50:00,
2013-02-24 12:00:00,56.8,27.2,30.24,NNW,336,1.0,1.0,32,0.00,,,0.00,76,Wunderground v.1.15,2013-02-24 20:00:00,
2013-02-24 12:10:00,57.3,28.4,30.23,NNW,344,0.0,0.0,33,0.00,,,0.00,357,Wunderground v.1.15,2013-02-24 20:10:00,
2013-02-24 12:15:00,57.4,29.2,30.22,NNW,341,0.0,0.0,34,0.00,,,0.00,118,Wunderground v.1.15,2013-02-24 20:15:00,
2013-02-24 12:25:00,57.8,28.9,30.22,North,9,0.0,0.0,33,0.00,,,0.00,454,Wunderground v.1.15,2013-02-24 20:25:00,
2013-02-24 12:30:00,58.0,27.5,30.22,NNW,329,1.0,3.0,31,0.00,,,0.00,54,Wunderground v.1.15,2013-02-24 20:30:00,
2013-02-24 12:40:00,58.2,27.7,30.21,NNE,32,1.0,1.0,31,0.00,,,0.00,53,Wunderground v.1.15,2013-02-24 20:40:00,
2013-02-24 12:50:00,58.2,28.5,30.21,NNW,338,1.0,1.0,32,0.00,,,0.00,88,Wunderground v.1.15,2013-02-24 20:50:00,
2013-02-24 13:00:00,58.8,29.0,30.20,NNE,15,1.0,1.0,32,0.00,,,0.00,155,Wunderground v.1.15,2013-02-24 21:00:00,
2013-02-24 13:10:00,59.5,28.0,30.20,NNW,333,1.0,1.0,30,0.00,,,0.00,691,Wunderground v.1.15,2013-02-24 21:10:00,
2013-02-24 13:20:00,59.8,27.4,30.20,NNE,19,1.0,1.0,29,0.00,,,0.00,680,Wunderground v.1.15,2013-02-24 21:20:00,
2013-02-24 13:30:00,60.0,27.6,30.19,NW,313,1.0,1.0,29,0.00,,,0.00,673,Wunderground v.1.15,2013-02-24 21:30:00,
2013-02-24 13:35:00,60.2,29.4,30.19,North,355,1.0,1.0,31,0.00,,,0.00,666,Wunderground v.1.15,2013-02-24 21:35:00,
2013-02-24 13:40:00,60.4,28.0,30.19,NNW,340,1.0,1.0,29,0.00,,,0.00,656,Wunderground v.1.15,2013-02-24 21:40:00,
2013-02-24 13:50:00,60.3,28.7,30.19,North,350,1.0,1.0,30,0.00,,,0.00,635,Wunderground v.1.15,2013-02-24 21:50:00,
2013-02-24 14:00:00,60.4,28.8,30.19,NNW,339,0.0,0.0,30,0.00,,,0.00,619,Wunderground v.1.15,2013-02-24 22:00:00,
2013-02-24 14:10:00,60.7,29.9,30.18,NNW,348,1.0,1.0,31,0.00,,,0.00,601,Wunderground v.1.15,2013-02-24 22:10:00,
2013-02-24 14:20:00,60.7,26.5,30.18,North,355,1.0,1.0,27,0.00,,,0.00,580,Wunderground v.1.15,2013-02-24 22:20:00,
2013-02-24 14:30:00,60.4,27.1,30.18,NNW,329,0.0,0.0,28,0.00,,,0.00,207,Wunderground v.1.15,2013-02-24 22:30:00,
2013-02-24 14:40:00,60.5,28.9,30.18,NNW,337,1.0,1.0,30,0.00,,,0.00,455,Wunderground v.1.15,2013-02-24 22:40:00,
2013-02-24 14:50:00,60.4,27.1,30.18,NW,321,1.0,1.0,28,0.00,,,0.00,125,Wunderground v.1.15,2013-02-24 22:50:00,
2013-02-24 15:00:00,60.1,28.5,30.18,NNW,331,1.0,1.0,30,0.00,,,0.00,86,Wunderground v.1.15,2013-02-24 23:00:00,
2013-02-24 15:10:00,59.9,27.5,30.18,NNW,331,1.0,3.0,29,0.00,,,0.00,97,Wunderground v.1.15,2013-02-24 23:10:00,
2013-02-24 15:15:00,60.0,27.6,30.17,NNW,333,1.0,3.0,29,0.00,,,0.00,118,Wunderground v.1.15,2013-02-24 23:15:00,
2013-02-24 15:25:00,59.9,27.5,30.17,WNW,300,0.0,1.0,29,0.00,,,0.00,153,Wunderground v.1.15,2013-02-24 23:25:00,
2013-02-24 15:35:00,60.1,27.7,30.17,North,351,0.0,2.0,29,0.00,,,0.00,116,Wunderground v.1.15,2013-02-24 23:35:00,
2013-02-24 15:40:00,60.2,28.6,30.17,North,355,0.0,1.0,30,0.00,,,0.00,267,Wunderground v.1.15,2013-02-24 23:40:00,
2013-02-24 15:45:00,60.2,28.6,30.17,NNW,338,0.0,1.0,30,0.00,,,0.00,35,Wunderground v.1.15,2013-02-24 23:45:00,
2013-02-24 15:50:00,60.1,29.3,30.17,West,272,0.0,0.0,31,0.00,,,0.00,35,Wunderground v.1.15,2013-02-24 23:50:00,
2013-02-24 16:00:00,59.9,27.5,30.17,WNW,287,0.0,0.0,29,0.00,,,0.00,33,Wunderground v.1.15,2013-02-25 00:00:00,
2013-02-24 16:10:00,59.9,27.5,30.17,NNW,346,1.0,1.0,29,0.00,,,0.00,32,Wunderground v.1.15,2013-02-25 00:10:00,
2013-02-24 16:15:00,59.9,28.4,30.17,NNW,348,1.0,1.0,30,0.00,,,0.00,30,Wunderground v.1.15,2013-02-25 00:15:00,
2013-02-24 16:25:00,59.5,28.8,30.17,WNW,301,0.0,0.0,31,0.00,,,0.00,26,Wunderground v.1.15,2013-02-25 00:25:00,
2013-02-24 16:30:00,59.2,29.3,30.17,WNW,301,0.0,0.0,32,0.00,,,0.00,26,Wunderground v.1.15,2013-02-25 00:30:00,
2013-02-24 16:40:00,58.7,28.9,30.17,NNW,340,0.0,0.0,32,0.00,,,0.00,23,Wunderground v.1.15,2013-02-25 00:40:00,
2013-02-24 16:50:00,58.7,28.9,30.17,North,350,0.0,0.0,32,0.00,,,0.00,21,Wunderground v.1.15,2013-02-25 00:50:00,
2013-02-24 17:00:00,58.7,27.3,30.17,NNW,332,0.0,0.0,30,0.00,,,0.00,18,Wunderground v.1.15,2013-02-25 01:00:00,
2013-02-24 17:10:00,58.6,28.8,30.17,NNE,21,0.0,0.0,32,0.00,,,0.00,16,Wunderground v.1.15,2013-02-25 01:10:00,
2013-02-24 17:20:00,58.2,27.7,30.17,NW,315,0.0,0.0,31,0.00,,,0.00,14,Wunderground v.1.15,2013-02-25 01:20:00,
2013-02-24 17:25:00,58.0,28.3,30.17,NW,315,0.0,0.0,32,0.00,,,0.00,14,Wunderground v.1.15,2013-02-25 01:25:00,
2013-02-24 17:35:00,57.5,30.0,30.17,NW,315,0.0,0.0,35,0.00,,,0.00,11,Wunderground v.1.15,2013-02-25 01:35:00,
2013-02-24 17:40:00,57.3,31.2,30.17,East,80,0.0,0.0,37,0.00,,,0.00,9,Wunderground v.1.15,2013-02-25 01:40:00,
2013-02-24 17:50:00,56.9,32.2,30.17,East,80,0.0,0.0,39,0.00,,,0.00,5,Wunderground v.1.15,2013-02-25 01:50:00,
2013-02-24 18:00:00,56.4,33.0,30.17,East,80,0.0,0.0,41,0.00,,,0.00,0,Wunderground v.1.15,2013-02-25 02:00:00,
2013-02-24 18:10:00,55.4,33.3,30.17,East,80,0.0,0.0,43,0.00,,,0.00,0,Wunderground v.1.15,2013-02-25 02:10:00,
2013-02-24 18:20:00,54.5,33.0,30.17,East,80,0.0,0.0,44,0.00,,,0.00,0,Wunderground v.1.15,2013-02-25 02:20:00,
2013-02-24 18:30:00,53.6,32.8,30.18,East,80,0.0,0.0,45,0.00,,,0.00,0,Wunderground v.1.15,2013-02-25 02:30:00,
2013-02-24 18:40:00,53.0,33.3,30.18,East,80,0.0,0.0,47,0.00,,,0.00,0,Wunderground v.1.15,2013-02-25 02:40:00,
2013-02-24 18:50:00,52.2,33.6,30.18,East,80,0.0,0.0,49,0.00,,,0.00,0,Wunderground v.1.15,2013-02-25 02:50:00,
2013-02-24 19:00:00,51.3,34.3,30.19,East,80,0.0,0.0,52,0.00,,,0.00,0,Wunderground v.1.15,2013-02-25 03:00:00,
2013-02-24 19:10:00,50.6,33.6,30.19,East,80,0.0,0.0,52,0.00,,,0.00,0,Wunderground v.1.15,2013-02-25 03:10:00,
2013-02-24 19:20:00,49.9,33.9,30.19,East,80,0.0,0.0,54,0.00,,,0.00,0,Wunderground v.1.15,2013-02-25 03:20:00,
2013-02-24 19:25:00,49.4,33.0,30.19,East,80,0.0,0.0,53,0.00,,,0.00,0,Wunderground v.1.15,2013-02-25 03:25:00,
2013-02-24 19:35:00,48.8,33.3,30.20,East,80,0.0,0.0,55,0.00,,,0.00,0,Wunderground v.1.15,2013-02-25 03:35:00,
2013-02-24 19:45:00,48.4,35.6,30.20,East,80,0.0,0.0,61,0.00,,,0.00,0,Wunderground v.1.15,2013-02-25 03:45:00,
2013-02-24 19:55:00,47.9,36.7,30.20,East,80,0.0,0.0,65,0.00,,,0.00,0,Wunderground v.1.15,2013-02-25 03:55:00,
2013-02-24 20:00:00,47.6,36.8,30.20,East,80,0.0,0.0,66,0.00,,,0.00,0,Wunderground v.1.15,2013-02-25 04:00:00,
2013-02-24 20:05:00,47.5,36.7,30.21,East,80,0.0,0.0,66,0.00,,,0.00,0,Wunderground v.1.15,2013-02-25 04:05:00,
2013-02-24 20:15:00,47.2,36.8,30.21,East,80,0.0,0.0,67,0.00,,,0.00,0,Wunderground v.1.15,2013-02-25 04:15:00,
2013-02-24 20:25:00,46.9,37.3,30.21,East,80,0.0,0.0,69,0.00,,,0.00,0,Wunderground v.1.15,2013-02-25 04:25:00,
2013-02-24 20:30:00,46.8,37.2,30.21,East,80,0.0,0.0,69,0.00,,,0.00,0,Wunderground v.1.15,2013-02-25 04:30:00,
2013-02-24 20:40:00,46.5,37.6,30.22,East,80,0.0,0.0,71,0.00,,,0.00,0,Wunderground v.1.15,2013-02-25 04:40:00,
2013-02-24 20:50:00,46.3,37.0,30.22,East,80,0.0,0.0,70,0.00,,,0.00,0,Wunderground v.1.15,2013-02-25 04:50:00,
2013-02-24 21:00:00,46.1,36.9,30.21,East,80,0.0,0.0,70,0.00,,,0.00,0,Wunderground v.1.15,2013-02-25 05:00:00,
2013-02-24 21:05:00,46.0,36.8,30.22,East,80,0.0,0.0,70,0.00,,,0.00,0,Wunderground v.1.15,2013-02-25 05:05:00,
2013-02-24 21:10:00,46.0,36.8,30.22,East,80,0.0,0.0,70,0.00,,,0.00,0,Wunderground v.1.15,2013-02-25 05:10:00,
2013-02-24 21:15:00,45.9,36.7,30.22,East,80,0.0,0.0,70,0.00,,,0.00,0,Wunderground v.1.15,2013-02-25 05:15:00,
2013-02-24 21:25:00,45.6,37.1,30.23,East,80,0.0,0.0,72,0.00,,,0.00,0,Wunderground v.1.15,2013-02-25 05:25:00,
2013-02-24 21:35:00,45.5,36.6,30.23,East,80,0.0,0.0,71,0.00,,,0.00,0,Wunderground v.1.15,2013-02-25 05:35:00,
2013-02-24 21:45:00,45.5,36.6,30.23,East,80,0.0,0.0,71,0.00,,,0.00,0,Wunderground v.1.15,2013-02-25 05:45:00,
2013-02-24 21:50:00,45.6,37.1,30.23,East,80,0.0,0.0,72,0.00,,,0.00,0,Wunderground v.1.15,2013-02-25 05:50:00,
2013-02-24 21:55:00,45.6,37.1,30.24,East,80,0.0,0.0,72,0.00,,,0.00,0,Wunderground v.1.15,2013-02-25 05:55:00,
2013-02-24 22:00:00,45.7,37.5,30.24,East,80,0.0,0.0,73,0.00,,,0.00,0,Wunderground v.1.15,2013-02-25 06:00:00,
2013-02-24 22:10:00,45.8,36.9,30.24,East,80,0.0,0.0,71,0.00,,,0.00,0,Wunderground v.1.15,2013-02-25 06:10:00,
2013-02-24 22:20:00,45.7,36.8,30.24,East,80,0.0,0.0,71,0.00,,,0.00,0,Wunderground v.1.15,2013-02-25 06:20:00,
2013-02-24 22:30:00,45.5,35.9,30.24,East,80,0.0,0.0,69,0.00,,,0.00,0,Wunderground v.1.15,2013-02-25 06:30:00,
2013-02-24 22:40:00,45.8,36.2,30.24,East,80,0.0,0.0,69,0.00,,,0.00,0,Wunderground v.1.15,2013-02-25 06:40:00,
2013-02-24 22:50:00,45.9,37.0,30.24,East,80,0.0,0.0,71,0.00,,,0.00,0,Wunderground v.1.15,2013-02-25 06:50:00,
2013-02-24 23:00:00,45.9,36.7,30.24,East,80,0.0,0.0,70,0.00,,,0.00,0,Wunderground v.1.15,2013-02-25 07:00:00,
2013-02-24 23:10:00,45.4,37.2,30.24,East,80,0.0,0.0,73,0.00,,,0.00,0,Wunderground v.1.15,2013-02-25 07:10:00,
2013-02-24 23:15:00,45.2,37.4,30.24,East,80,0.0,0.0,74,0.00,,,0.00,0,Wunderground v.1.15,2013-02-25 07:15:00,
2013-02-24 23:25:00,44.9,37.5,30.24,East,80,0.0,0.0,75,0.00,,,0.00,0,Wunderground v.1.15,2013-02-25 07:25:00,
2013-02-24 23:30:00,44.9,37.5,30.24,East,80,0.0,0.0,75,0.00,,,0.00,0,Wunderground v.1.15,2013-02-25 07:30:00,
2013-02-24 23:40:00,44.8,37.7,30.24,East,80,0.0,0.0,76,0.00,,,0.00,0,Wunderground v.1.15,2013-02-25 07:40:00,
2013-02-24 23:50:00,44.5,37.4,30.25,East,80,0.0,0.0,76,0.00,,,0.00,0,Wunderground v.1.15,2013-02-25 07:50:00,
2013-02-24 23:55:00,44.3,37.2,30.25,East,80,0.0,0.0,76,0.00,,,0.00,0,Wunderground v.1.15,2013-02-25 07:55:00,